GW4024 Weather Reports


Display with metric or nautical units.
time (UTC)temp
F
wind
direction
speed
MPH
gust
MPH
rain 1hr
in
rain 24hr
in
rain mn
in
humidity
%
barometer
mb
20260504050021 46 169 0.0 2.0 0.00 0.00 0.00 66 1010.5
20260504044525 46 169 1.0 3.0 0.00 0.00 0.00 68 1010.7
20260504043018 45 161 1.0 3.0 0.00 0.00 0.00 70 1010.9
20260504041516 45 340 0.0 1.0 0.00 0.00 0.00 69 1011.3
20260504040017 45 340 0.0 3.0 0.00 0.00 0.00 69 1011.3
20260504034513 45 340 0.0 2.0 0.00 0.00 0.00 69 1011.1
20260504033012 45 340 0.0 0.0 0.00 0.00 0.00 68 1011.0
20260504031514 45 340 1.0 2.0 0.00 0.00 0.00 69 1010.7
20260504030013 44 340 0.0 0.0 0.00 0.00 0.00 67 1010.7
20260504024511 44 340 0.0 3.0 0.00 0.00 0.00 67 1010.7
20260504023011 45 340 1.0 2.0 0.00 0.00 0.00 63 1010.6
20260504021510 45 340 0.0 2.0 0.00 0.00 0.00 61 1010.6
20260504020017 46 340 0.0 2.0 0.00 0.00 0.00 58 1010.6
20260504014510 47 340 0.0 1.0 0.00 0.00 0.00 55 1010.5
20260504013011 49 340 0.0 0.0 0.00 0.00 0.00 53 1010.4
20260504011511 50 340 0.0 1.0 0.00 0.00 0.00 50 1010.4
20260504010009 51 340 0.0 2.0 0.00 0.00 0.00 47 1010.2
20260504004514 51 315 2.0 9.0 0.00 0.00 0.00 46 1010.2
20260504003006 52 204 3.0 7.0 0.00 0.00 0.00 44 1010.1
20260504001507 52 248 6.0 9.0 0.00 0.00 0.00 43 1009.9
20260504000006 52 243 4.0 9.0 0.00 0.00 0.00 42 1009.8
20260503234506 53 187 5.0 11.0 0.00 0.00 0.00 39 1009.7
20260503233005 54 265 7.0 18.0 0.00 0.00 0.00 38 1009.5
20260503231506 54 188 7.0 13.0 0.00 0.00 0.00 37 1009.3
20260503230004 55 267 7.0 17.0 0.00 0.00 0.00 35 1009.3
20260503224502 55 281 6.0 18.0 0.00 0.00 0.00 34 1009.0
20260503223002 56 259 7.0 18.0 0.00 0.00 0.00 33 1008.9
20260503221502 56 254 8.0 18.0 0.00 0.00 0.00 32 1008.8
20260503220005 56 265 6.0 17.0 0.00 0.00 0.00 32 1008.9
20260503214602 56 216 6.0 14.0 0.00 0.00 0.00 31 1008.8
20260503213112 56 184 9.0 19.0 0.00 0.00 0.00 31 1008.9
20260503211559 56 178 12.0 24.0 0.00 0.00 0.00 30 1008.9
20260503210104 56 247 6.0 14.0 0.00 0.00 0.00 31 1008.9
20260503204558 55 323 10.0 17.0 0.00 0.00 0.00 31 1009.0
20260503203102 55 174 10.0 20.0 0.00 0.00 0.00 33 1009.2
20260503201555 55 313 8.0 19.0 0.00 0.00 0.00 34 1009.2
20260503200056 55 341 7.0 23.0 0.00 0.00 0.00 35 1009.4
20260503194549 54 323 4.0 13.0 0.00 0.00 0.00 37 1009.5
20260503193052 53 311 7.0 16.0 0.00 0.00 0.00 38 1009.8
20260503191548 53 315 6.0 11.0 0.00 0.00 0.00 38 1010.0
20260503190047 53 355 8.0 18.0 0.00 0.00 0.00 39 1010.1
20260503184555 53 236 5.0 11.0 0.00 0.00 0.00 41 1010.4
20260503183054 52 340 10.0 18.0 0.00 0.00 0.00 40 1010.3
20260503181541 51 163 10.0 17.0 0.00 0.00 0.00 42 1010.3
20260503180038 51 254 6.0 15.0 0.00 0.00 0.00 45 1010.5
20260503174535 51 252 5.0 23.0 0.00 0.00 0.00 45 1010.7
20260503173034 50 319 7.0 17.0 0.00 0.00 0.00 47 1010.9
20260503171531 48 309 6.0 17.0 0.00 0.00 0.00 48 1011.0
20260503081630 39 355 2.0 9.0 0.00 0.00 0.00 75 1011.3
20260503080112 39 16 4.0 8.0 0.00 0.00 0.00 75 1011.5
20260503071553 38 348 6.0 11.0 0.00 0.00 0.00 74 1011.7